Ephrata, WA
on Wednesday, December 5, 2012

Wednesday
Previous Day Next Day
Daily Summary
 ActualAverageRecord
Temperature
Mean Temperature °F 29°F  
Max Temperature 48°F 36°F 52°F (1953)
Min Temperature 33°F 23°F 5°F (1984)
Degree Days
Heating Degree Days 24 36  
Month to date heating degree days 109 175  
Since 1 July heating degree days 1369 1594  
Cooling Degree Days 0 0  
Month to date cooling degree days 0 0  
Year to date cooling degree days 837 772  
Moisture
Dew Point 28°F   
Average Humidity 62    
Maximum Humidity 86    
Minimum Humidity 37    
Precipitation
Precipitation 0.00 in 0.04 in 0.42 in (1963)
Month to date precipitation 0.56 0.21  
Year to date precipitation 7.51 6.82  
Wind
Wind Speed 7 mph   
Max Wind Speed 15 mph   
Max Gust Speed 17 mph   
Visibility 10 miles   
Events     

Key: T is trace of precipitation, MM is missing value
Source: NWS Daily Summary
Time(PST)TemperatureDew PointHumidity Pressure Visibility Wind DirectionWind SpeedGust SpeedPrecipitationEvents Conditions
12:53 AM 42.1°F 37.0°F 82% 29.74 in 10.0 miles West 10.4 mph - N/A   Clear
1:53 AM 39.0°F 35.1°F 86% 29.76 in 10.0 miles SSW 10.4 mph - N/A   Clear
2:53 AM 39.9°F 35.1°F 83% 29.81 in 10.0 miles East 8.1 mph - N/A   Overcast
3:53 AM 41.0°F 32.0°F 70% 29.84 in 10.0 miles SW 3.5 mph 16.1 mph N/A   Clear
4:53 AM 39.0°F 26.1°F 60% 29.89 in 10.0 miles Calm Calm - N/A   Clear
6:53 AM 35.1°F 25.0°F 67% 29.97 in 10.0 miles SW 11.5 mph - N/A   Clear
7:53 AM 35.1°F 26.1°F 70% 30.01 in 10.0 miles South 12.7 mph - N/A   Clear
8:53 AM 39.0°F 28.0°F 65% 30.05 in 10.0 miles SW 12.7 mph - N/A   Clear
9:53 AM 42.1°F 30.0°F 62% 30.07 in 10.0 miles SW 10.4 mph - N/A   Clear
10:53 AM 46.0°F 28.0°F 50% 30.08 in 10.0 miles SW 9.2 mph - N/A   Clear
11:53 AM 46.9°F 24.1°F 41% 30.11 in 10.0 miles WSW 9.2 mph - N/A   Clear
12:53 PM 48.0°F 26.1°F 42% 30.11 in 10.0 miles SW 10.4 mph - N/A   Partly Cloudy
1:53 PM 46.9°F 21.9°F 37% 30.12 in 10.0 miles WSW 10.4 mph - N/A   Clear
2:53 PM 46.0°F 21.9°F 39% 30.13 in 10.0 miles WSW 6.9 mph - N/A   Clear
3:53 PM 42.1°F 28.0°F 58% 30.15 in 10.0 miles SW 5.8 mph - N/A   Clear
4:53 PM 39.0°F 27.0°F 62% 30.17 in 10.0 miles Calm Calm - N/A   Clear
5:53 PM 35.1°F 26.1°F 70% 30.19 in 10.0 miles South 3.5 mph - N/A   Clear
6:53 PM 36.0°F 25.0°F 64% 30.18 in 10.0 miles WSW 10.4 mph - N/A   Partly Cloudy
7:53 PM 34.0°F 26.1°F 73% 30.17 in 10.0 miles WSW 8.1 mph - N/A   Clear
8:53 PM 35.1°F 26.1°F 70% 30.17 in 10.0 miles Calm Calm - N/A   Clear
9:53 PM 39.0°F 25.0°F 57% 30.17 in 10.0 miles Variable 3.5 mph - N/A   Mostly Cloudy
10:53 PM 35.1°F 28.0°F 76% 30.15 in 10.0 miles ESE 3.5 mph - N/A   Overcast
11:53 PM 36.0°F 27.0°F 70% 30.15 in 10.0 miles Calm Calm - N/A   Overcast
Moon Phase
Dec. 05 Dec. 06 Dec. 13 Dec. 20 Dec. 28
Sunrise:07:29 AM (PST) Moon Rise:11:24 PM (PST)12/5
Sunset:04:08 PM (PST) Moon Set:11:36 AM (PST)12/5

Copyright © 2014 The Weather Underground, Inc.